Greenwood, MS

12:16 AM CST on November 22, 2017 (GMT -0600)
Greenwood-Leflore

Weather History for KGWO - August, 2013

Change the Weather History Date:

Wednesday, August 21, 2013

  Actual Average Record
Temperature  
Mean Temperature 83 °F 81 °F  
Max Temperature 92 °F 92 °F 102 °F (2005)
Min Temperature 73 °F 70 °F 60 °F (1961)
Degree Days  
Heating Degree Days 0 0  
Month to date heating degree days 0 0  
Since 1 June heating degree days 0 0  
Since 1 July heating degree days 0 0  
Cooling Degree Days 18 16  
Month to date cooling degree days 337 336  
Year to date cooling degree days 1471 1584  
Since 1 June cooling degree days 1195 1254  
Growing Degree Days 32 (Base 50)    
Moisture  
Dew Point 72 °F    
Average Humidity 73    
Maximum Humidity 94    
Minimum Humidity 52    
Precipitation  
Precipitation 0.01 in 0.09 in 1.65 in (1969)
Month to date precipitation 0.52 1.87  
Year to date precipitation 36.24 33.11  
Sea Level Pressure  
Sea Level Pressure 30.09 in    
Wind  
Wind Speed 3 mph (South)    
Max Wind Speed 12 mph    
Max Gust Speed 14 mph    
Visibility 10 miles    
Events      
T = Trace of Precipitation, MM = Missing Value Source: NWS Daily Summary

Daily Weather History Graph

Daily Weather History Graph

Search for Another Location

Airport or City:

Trip Planner

Search our weather history database for the weather conditions in past years. The results will help you decide how hot, cold, wet, or windy it might be!

Date:

Astronomy

Aug. 21, 2013 Rise Set
Actual Time 6:27 AM CDT 7:39 PM CDT
Civil Twilight 6:01 AM CDT 8:04 PM CDT
Nautical Twilight 5:30 AM CDT 8:35 PM CDT
Astronomical Twilight 4:58 AM CDT 9:07 PM CDT
Moon 7:54 PM CDT (8/21) 7:02 AM CDT (8/21)
Length of Visible Light 14h 03m
Length of Day
13h 12m
Waxing Gibbous, 99% of the Moon is Illuminated
Aug 21
Waxing Gibbous
Aug 28
Last Quarter
Sep 5
New
Sep 12
First Quarter
Sep 19
Full

Hourly Weather History & Observations

Time (CDT) Temp. Heat Index Dew Point Humidity Pressure Visibility Wind Dir Wind Speed Gust Speed Precip Events Conditions
12:53 AM 77.0 °F - 72.0 °F 84% 30.06 in 10.0 mi SE 5.8 mph - N/A   Clear
1:53 AM 75.9 °F - 71.1 °F 85% 30.06 in 10.0 mi SSE 4.6 mph - N/A   Clear
2:53 AM 73.0 °F - 70.0 °F 90% 30.06 in 10.0 mi Calm Calm - N/A   Partly Cloudy
3:53 AM 75.0 °F - 71.1 °F 87% 30.06 in 10.0 mi SSE 4.6 mph - N/A   Overcast
4:53 AM 73.9 °F - 72.0 °F 93% 30.07 in 10.0 mi South 3.5 mph - N/A   Overcast
5:53 AM 75.9 °F - 72.0 °F 87% 30.09 in 10.0 mi South 5.8 mph - N/A   Overcast
6:53 AM 75.0 °F - 73.0 °F 94% 30.11 in 10.0 mi Calm Calm - 0.01 in   Mostly Cloudy
7:53 AM 75.0 °F - 73.0 °F 94% 30.12 in 10.0 mi South 3.5 mph - N/A   Clear
8:53 AM 77.0 °F - 73.0 °F 88% 30.14 in 10.0 mi South 4.6 mph - N/A   Mostly Cloudy
9:53 AM 80.1 °F 84.2 °F 73.0 °F 79% 30.14 in 10.0 mi Variable 3.5 mph - N/A   Partly Cloudy
10:53 AM 84.0 °F 89.6 °F 72.0 °F 67% 30.14 in 10.0 mi Calm Calm - N/A   Partly Cloudy
11:53 AM 86.0 °F 92.2 °F 72.0 °F 63% 30.14 in 10.0 mi Variable 3.5 mph - N/A   Clear
12:53 PM 89.1 °F 97.0 °F 73.0 °F 59% 30.11 in 10.0 mi Variable 4.6 mph - N/A   Clear
1:53 PM 91.0 °F 97.6 °F 71.1 °F 52% 30.09 in 10.0 mi Calm Calm - N/A   Scattered Clouds
2:53 PM 88.0 °F 93.8 °F 71.1 °F 57% 30.08 in 10.0 mi Variable 5.8 mph - N/A   Mostly Cloudy
3:53 PM 91.9 °F 98.4 °F 71.1 °F 50% 30.05 in 10.0 mi ENE 4.6 mph - N/A   Scattered Clouds
4:24 PM 87.8 °F 95.6 °F 73.4 °F 62% 30.06 in 1.5 mi SSW 9.2 mph - N/A   Haze
4:32 PM 87.8 °F 95.6 °F 73.4 °F 62% 30.06 in 10.0 mi SSW 10.4 mph - N/A   Mostly Cloudy
4:53 PM 87.1 °F 94.5 °F 73.0 °F 63% 30.05 in 10.0 mi South 6.9 mph - N/A   Mostly Cloudy
5:53 PM 87.1 °F 95.4 °F 73.9 °F 65% 30.05 in 10.0 mi SW 4.6 mph - N/A   Partly Cloudy
6:53 PM 84.9 °F 92.1 °F 73.9 °F 69% 30.05 in 10.0 mi SSW 4.6 mph - N/A   Clear
7:53 PM 79.0 °F - 75.0 °F 88% 30.06 in 10.0 mi Calm Calm - N/A   Clear
8:53 PM 77.0 °F - 73.9 °F 90% 30.08 in 9.0 mi Calm Calm - N/A   Mostly Cloudy
9:53 PM 79.0 °F - 72.0 °F 79% 30.09 in 10.0 mi SSE 4.6 mph - N/A   Clear
10:53 PM 75.9 °F - 72.0 °F 87% 30.10 in 10.0 mi South 3.5 mph - N/A   Clear
11:53 PM 77.0 °F - 72.0 °F 84% 30.10 in 10.0 mi SE 5.8 mph - N/A   Clear